| time (UTC) | temp F | wind direction | speed MPH | gust MPH | rain 1hr in | rain 24hr in | rain mn in | humidity % | barometer mb |
| 20260902090049 | 50 | 40 | 1.0 | 3.0 | 0.00 | 0.00 | 0.00 | 83 | 991.7 |
| 20260902084558 | 50 | 46 | 1.0 | 2.0 | 0.00 | 0.00 | 0.00 | 83 | 991.8 |
| 20260902083047 | 51 | 50 | 2.0 | 3.0 | 0.00 | 0.00 | 0.00 | 83 | 991.6 |
| 20260902081549 | 51 | 46 | 1.0 | 3.0 | 0.00 | 0.00 | 0.00 | 83 | 991.5 |
| 20260902080041 | 52 | 34 | 1.0 | 3.0 | 0.00 | 0.00 | 0.00 | 83 | 991.6 |
| 20260902074538 | 52 | 44 | 2.0 | 3.0 | 0.00 | 0.00 | 0.00 | 82 | 991.9 |
| 20260902073048 | 52 | 51 | 2.0 | 3.0 | 0.00 | 0.00 | 0.00 | 83 | 991.8 |
| 20260902071537 | 52 | 44 | 2.0 | 4.0 | 0.00 | 0.00 | 0.00 | 82 | 991.8 |
| 20260902070031 | 52 | 43 | 2.0 | 3.0 | 0.00 | 0.00 | 0.00 | 81 | 991.9 |
| 20260902064535 | 53 | 13 | 2.0 | 3.0 | 0.00 | 0.00 | 0.00 | 80 | 991.9 |
| 20260902063030 | 53 | 37 | 1.0 | 2.0 | 0.00 | 0.00 | 0.00 | 80 | 992.0 |
| 20260902061530 | 54 | 44 | 2.0 | 3.0 | 0.00 | 0.00 | 0.00 | 80 | 992.0 |
| 20260902060034 | 53 | 43 | 2.0 | 3.0 | 0.00 | 0.00 | 0.00 | 79 | 992.0 |
| 20260902054528 | 54 | 46 | 2.0 | 3.0 | 0.00 | 0.00 | 0.00 | 78 | 992.2 |
| 20260902053029 | 54 | 44 | 2.0 | 3.0 | 0.00 | 0.00 | 0.00 | 77 | 992.2 |
| 20260902051529 | 55 | 40 | 1.0 | 3.0 | 0.00 | 0.00 | 0.00 | 77 | 992.2 |
| 20260902050027 | 55 | 46 | 2.0 | 4.0 | 0.00 | 0.00 | 0.00 | 76 | 992.3 |
| 20260902044527 | 56 | 46 | 2.0 | 3.0 | 0.00 | 0.00 | 0.00 | 74 | 992.2 |
| 20260902043026 | 58 | 46 | 2.0 | 3.0 | 0.00 | 0.00 | 0.00 | 73 | 992.1 |
| 20260902041525 | 59 | 32 | 1.0 | 2.0 | 0.00 | 0.00 | 0.00 | 72 | 992.0 |
| 20260902040026 | 60 | 37 | 0.0 | 2.0 | 0.00 | 0.00 | 0.00 | 69 | 992.0 |
| 20260902034525 | 61 | 41 | 1.0 | 2.0 | 0.00 | 0.00 | 0.00 | 68 | 992.1 |
| 20260902033023 | 61 | 28 | 0.0 | 1.0 | 0.00 | 0.00 | 0.00 | 69 | 992.1 |
| 20260902031523 | 63 | 34 | 1.0 | 2.0 | 0.00 | 0.00 | 0.00 | 65 | 992.1 |
| 20260902030022 | 63 | 44 | 1.0 | 2.0 | 0.00 | 0.00 | 0.00 | 64 | 992.0 |
| 20260902024522 | 63 | 47 | 1.0 | 2.0 | 0.00 | 0.00 | 0.00 | 62 | 991.9 |
| 20260902023023 | 64 | 46 | 2.0 | 3.0 | 0.00 | 0.00 | 0.00 | 61 | 991.9 |
| 20260902021521 | 65 | 221 | 1.0 | 2.0 | 0.00 | 0.00 | 0.00 | 56 | 991.9 |
| 20260902020024 | 67 | 221 | 0.0 | 2.0 | 0.00 | 0.00 | 0.00 | 54 | 992.0 |
| 20260902014532 | 69 | 221 | 1.0 | 1.0 | 0.00 | 0.00 | 0.00 | 58 | 992.1 |
| 20260902013020 | 70 | 222 | 0.0 | 0.0 | 0.00 | 0.00 | 0.00 | 50 | 992.2 |
| 20260902011535 | 71 | 221 | 0.0 | 0.0 | 0.00 | 0.00 | 0.00 | 53 | 992.2 |
| 20260902010019 | 71 | 221 | 0.0 | 1.0 | 0.00 | 0.00 | 0.00 | 58 | 992.4 |
| 20260902004517 | 71 | 32 | 0.0 | 1.0 | 0.00 | 0.00 | 0.00 | 49 | 992.3 |
| 20260902003017 | 70 | 332 | 1.0 | 3.0 | 0.00 | 0.00 | 0.00 | 50 | 992.1 |
| 20260902001520 | 68 | 18 | 1.0 | 3.0 | 0.00 | 0.00 | 0.00 | 64 | 992.2 |
| 20260902000016 | 69 | 58 | 1.0 | 3.0 | 0.00 | 0.00 | 0.00 | 61 | 992.5 |
| 20260901234514 | 71 | 37 | 0.0 | 2.0 | 0.00 | 0.00 | 0.00 | 52 | 992.4 |
| 20260901233014 | 73 | 44 | 0.0 | 2.0 | 0.00 | 0.00 | 0.00 | 45 | 992.4 |
| 20260901231513 | 73 | 128 | 0.0 | 3.0 | 0.00 | 0.00 | 0.00 | 45 | 992.2 |
| 20260901230013 | 74 | 78 | 0.0 | 4.0 | 0.00 | 0.00 | 0.00 | 41 | 992.2 |
| 20260901224512 | 75 | 207 | 0.0 | 2.0 | 0.00 | 0.00 | 0.00 | 41 | 992.2 |
| 20260901223012 | 75 | 200 | 0.0 | 3.0 | 0.00 | 0.00 | 0.00 | 42 | 992.4 |
| 20260901221510 | 75 | 277 | 0.0 | 1.0 | 0.00 | 0.00 | 0.00 | 42 | 992.3 |
| 20260901220009 | 75 | 197 | 0.0 | 1.0 | 0.00 | 0.00 | 0.00 | 42 | 992.4 |
| 20260901214526 | 75 | 274 | 1.0 | 2.0 | 0.00 | 0.00 | 0.00 | 42 | 992.4 |
| 20260901213009 | 75 | 211 | 0.0 | 4.0 | 0.00 | 0.00 | 0.00 | 40 | 992.3 |
| 20260901211509 | 75 | 212 | 0.0 | 2.0 | 0.00 | 0.00 | 0.00 | 40 | 991.8 |
| 20260901210009 | 75 | 259 | 0.0 | 4.0 | 0.00 | 0.00 | 0.00 | 41 | 991.9 |
| 20260901204504 | 76 | 264 | 1.0 | 4.0 | 0.00 | 0.00 | 0.00 | 40 | 991.7 |
| 20260901201558 | 74 | 53 | 0.0 | 3.0 | 0.00 | 0.00 | 0.00 | 39 | 991.7 |
| 20260901194556 | 72 | 340 | 3.0 | 7.0 | 0.00 | 0.00 | 0.00 | 45 | 991.9 |
| 20260901193053 | 73 | 51 | 3.0 | 8.0 | 0.00 | 0.00 | 0.00 | 42 | 992.1 |
| 20260901191553 | 73 | 321 | 2.0 | 6.0 | 0.00 | 0.00 | 0.00 | 40 | 992.2 |
| 20260901190053 | 71 | 168 | 3.0 | 13.0 | 0.00 | 0.00 | 0.00 | 42 | 991.6 |
| 20260901184545 | 71 | 262 | 0.0 | 2.0 | 0.00 | 0.00 | 0.00 | 45 | 992.7 |
| 20260901183101 | 71 | 18 | 3.0 | 7.0 | 0.00 | 0.00 | 0.00 | 45 | 992.8 |
| 20260901181542 | 71 | 10 | 2.0 | 9.0 | 0.00 | 0.00 | 0.00 | 46 | 992.7 |
| 20260901180038 | 69 | 226 | 2.0 | 8.0 | 0.00 | 0.00 | 0.00 | 49 | 992.9 |
| 20260901174533 | 68 | 229 | 0.0 | 6.0 | 0.00 | 0.00 | 0.00 | 52 | 993.1 |
| 20260901173036 | 67 | 77 | 2.0 | 5.0 | 0.00 | 0.00 | 0.00 | 53 | 993.5 |
| 20260901171528 | 66 | 290 | 1.0 | 8.0 | 0.00 | 0.00 | 0.00 | 53 | 993.5 |
| 20260901170027 | 66 | 15 | 3.0 | 10.0 | 0.00 | 0.00 | 0.00 | 55 | 993.7 |
| 20260901164525 | 66 | 239 | 3.0 | 9.0 | 0.00 | 0.00 | 0.00 | 56 | 993.7 |
| 20260901163021 | 65 | 236 | 1.0 | 6.0 | 0.00 | 0.00 | 0.00 | 59 | 994.2 |
| 20260901161518 | 63 | 315 | 0.0 | 3.0 | 0.00 | 0.00 | 0.00 | 61 | 994.6 |
| 20260901160023 | 63 | 207 | 3.0 | 9.0 | 0.00 | 0.00 | 0.00 | 62 | 994.3 |
| 20260901154514 | 63 | 290 | 0.0 | 4.0 | 0.00 | 0.00 | 0.00 | 62 | 994.5 |
| 20260901153019 | 60 | 63 | 0.0 | 3.0 | 0.00 | 0.00 | 0.00 | 71 | 994.6 |
| 20260901151505 | 59 | 236 | 1.0 | 3.0 | 0.00 | 0.00 | 0.00 | 71 | 994.9 |
| 20260901150007 | 59 | 144 | 0.0 | 3.0 | 0.00 | 0.00 | 0.00 | 73 | 994.9 |
| 20260901144502 | 58 | 271 | 0.0 | 4.0 | 0.00 | 0.00 | 0.00 | 72 | 994.8 |
| 20260901143059 | 57 | 273 | 0.0 | 3.0 | 0.00 | 0.00 | 0.00 | 73 | 994.8 |
| 20260901141603 | 57 | 243 | 0.0 | 2.0 | 0.00 | 0.00 | 0.00 | 73 | 994.8 |
| 20260901140058 | 56 | 245 | 0.0 | 4.0 | 0.00 | 0.00 | 0.00 | 74 | 994.9 |
| 20260901134554 | 55 | 248 | 0.0 | 3.0 | 0.00 | 0.00 | 0.00 | 76 | 994.8 |
| 20260901133054 | 54 | 50 | 0.0 | 1.0 | 0.00 | 0.00 | 0.00 | 76 | 994.9 |
| 20260901131555 | 55 | 290 | 0.0 | 1.0 | 0.00 | 0.00 | 0.00 | 75 | 995.0 |
| 20260901130052 | 54 | 252 | 1.0 | 2.0 | 0.00 | 0.00 | 0.00 | 76 | 995.2 |
| 20260901124551 | 54 | 47 | 0.0 | 2.0 | 0.00 | 0.00 | 0.00 | 76 | 995.1 |
| 20260901123053 | 53 | 95 | 1.0 | 4.0 | 0.00 | 0.00 | 0.00 | 76 | 995.1 |
| 20260901121551 | 53 | 280 | 0.0 | 2.0 | 0.00 | 0.00 | 0.00 | 77 | 995.1 |
| 20260901120106 | 52 | 224 | 1.0 | 3.0 | 0.00 | 0.00 | 0.00 | 78 | 995.0 |
| 20260901114551 | 52 | 49 | 0.0 | 3.0 | 0.00 | 0.00 | 0.00 | 77 | 995.1 |
| 20260901113055 | 52 | 40 | 0.0 | 2.0 | 0.00 | 0.00 | 0.00 | 77 | 995.0 |
| 20260901111544 | 52 | 49 | 0.0 | 2.0 | 0.00 | 0.00 | 0.00 | 77 | 995.1 |
| 20260901110049 | 52 | 27 | 1.0 | 4.0 | 0.00 | 0.00 | 0.00 | 76 | 995.2 |
| 20260901104541 | 54 | 323 | 0.0 | 3.0 | 0.00 | 0.00 | 0.00 | 74 | 995.1 |
| 20260901103051 | 55 | 63 | 1.0 | 2.0 | 0.00 | 0.00 | 0.00 | 71 | 995.1 |
| 20260901101539 | 55 | 290 | 1.0 | 3.0 | 0.00 | 0.00 | 0.00 | 70 | 994.9 |
| 20260901100039 | 56 | 16 | 1.0 | 2.0 | 0.00 | 0.00 | 0.00 | 69 | 995.1 |
| 20260901094534 | 55 | 256 | 1.0 | 3.0 | 0.00 | 0.00 | 0.00 | 71 | 995.0 |
| 20260901093032 | 54 | 291 | 1.0 | 4.0 | 0.00 | 0.00 | 0.00 | 73 | 995.1 |
| 20260901091530 | 51 | 46 | 0.0 | 4.0 | 0.00 | 0.00 | 0.00 | 75 | 995.3 |